owner,sensor,date,latitude,longitude,vertical_datum,sea_water_temperature,qcFlag
BP,ioos:station:wmo:42369:3,2022-09-01T00:00:00Z,27.2100,-90.2729,486.5,12.8,11111222
BP,ioos:station:wmo:42369:3,2022-09-01T00:20:00Z,27.2100,-90.2729,485.1,12.9,11111222
BP,ioos:station:wmo:42369:3,2022-09-01T00:40:00Z,27.2099,-90.2729,484.2,12.9,11111222
BP,ioos:station:wmo:42369:3,2022-09-01T01:00:00Z,27.2099,-90.2729,483.5,12.9,11111222
BP,ioos:station:wmo:42369:3,2022-09-01T01:20:00Z,27.2098,-90.2729,482.0,12.9,11111222
BP,ioos:station:wmo:42369:3,2022-09-01T01:40:00Z,27.2099,-90.2731,480.6,12.9,11111222
BP,ioos:station:wmo:42369:3,2022-09-01T02:40:00Z,27.2101,-90.2733,479.7,13.1,11111222
BP,ioos:station:wmo:42369:3,2022-09-01T03:00:00Z,27.2101,-90.2733,478.8,13.1,11111222
BP,ioos:station:wmo:42369:3,2022-09-01T03:20:00Z,27.2101,-90.2733,477.8,13.1,11111222
BP,ioos:station:wmo:42369:3,2022-09-01T04:00:00Z,27.2099,-90.2732,477.7,13.1,11111222
BP,ioos:station:wmo:42369:3,2022-09-01T04:20:00Z,27.2100,-90.2732,477.6,13.1,11111222
BP,ioos:station:wmo:42369:3,2022-09-01T04:40:00Z,27.2101,-90.2732,477.3,13.1,11111222
BP,ioos:station:wmo:42369:3,2022-09-01T05:00:00Z,27.2101,-90.2733,475.2,13.2,11111222
BP,ioos:station:wmo:42369:3,2022-09-01T05:20:00Z,27.2101,-90.2733,474.1,13.3,11111222
BP,ioos:station:wmo:42369:3,2022-09-01T05:40:00Z,27.2101,-90.2733,473.8,13.3,11111222
BP,ioos:station:wmo:42369:3,2022-09-01T06:00:00Z,27.2102,-90.2733,476.0,13.3,11111222
BP,ioos:station:wmo:42369:3,2022-09-01T06:20:00Z,27.2103,-90.2734,475.5,13.3,11111222
BP,ioos:station:wmo:42369:3,2022-09-01T06:40:00Z,27.2103,-90.2734,474.6,13.3,11111222
BP,ioos:station:wmo:42369:3,2022-09-01T07:00:00Z,27.2104,-90.2734,474.5,13.3,11111222
BP,ioos:station:wmo:42369:3,2022-09-01T07:40:00Z,27.2108,-90.2735,474.9,13.4,11111222
BP,ioos:station:wmo:42369:3,2022-09-01T08:00:00Z,27.2108,-90.2735,474.5,13.4,11111222
BP,ioos:station:wmo:42369:3,2022-09-01T08:20:00Z,27.2108,-90.2735,474.8,13.5,11111222
BP,ioos:station:wmo:42369:3,2022-09-01T08:40:00Z,27.2108,-90.2735,475.2,13.6,11111222
BP,ioos:station:wmo:42369:3,2022-09-01T09:00:00Z,27.2108,-90.2735,475.9,13.5,11111222
BP,ioos:station:wmo:42369:3,2022-09-01T09:20:00Z,27.2108,-90.2735,475.2,13.5,11111222
BP,ioos:station:wmo:42369:3,2022-09-01T09:40:00Z,27.2108,-90.2735,474.6,13.4,11111222
BP,ioos:station:wmo:42369:3,2022-09-01T10:00:00Z,27.2107,-90.2735,476.1,13.4,11111222
BP,ioos:station:wmo:42369:3,2022-09-01T10:20:00Z,27.2108,-90.2735,476.0,13.4,11111222
BP,ioos:station:wmo:42369:3,2022-09-01T10:40:00Z,27.2108,-90.2735,476.9,13.5,11111222
BP,ioos:station:wmo:42369:3,2022-09-01T11:00:00Z,27.2109,-90.2734,477.3,13.4,11111222
BP,ioos:station:wmo:42369:3,2022-09-01T11:20:00Z,27.2109,-90.2734,478.7,13.4,11111222
BP,ioos:station:wmo:42369:3,2022-09-01T11:40:00Z,27.2109,-90.2734,479.3,13.4,11111222
BP,ioos:station:wmo:42369:3,2022-09-01T12:00:00Z,27.2109,-90.2734,480.3,13.4,11111222
BP,ioos:station:wmo:42369:3,2022-09-01T12:20:00Z,27.2109,-90.2734,479.9,13.4,11111222
BP,ioos:station:wmo:42369:3,2022-09-01T12:40:00Z,27.2109,-90.2734,481.4,13.3,11111222
BP,ioos:station:wmo:42369:3,2022-09-01T13:00:00Z,27.2110,-90.2734,481.0,13.3,11111222
BP,ioos:station:wmo:42369:3,2022-09-01T13:20:00Z,27.2110,-90.2734,482.1,13.3,11111222
BP,ioos:station:wmo:42369:3,2022-09-01T13:40:00Z,27.2109,-90.2733,483.4,13.3,11111222
BP,ioos:station:wmo:42369:3,2022-09-01T14:00:00Z,27.2109,-90.2733,482.6,13.3,11111222
BP,ioos:station:wmo:42369:3,2022-09-01T14:20:00Z,27.2108,-90.2733,484.3,13.2,11111222
BP,ioos:station:wmo:42369:3,2022-09-01T14:40:00Z,27.2108,-90.2732,484.7,13.2,11111222
BP,ioos:station:wmo:42369:3,2022-09-01T15:00:00Z,27.2108,-90.2733,484.2,13.2,11111222
BP,ioos:station:wmo:42369:3,2022-09-01T15:20:00Z,27.2108,-90.2732,484.4,13.2,11111222
BP,ioos:station:wmo:42369:3,2022-09-01T16:00:00Z,27.2106,-90.2732,484.8,13.2,11111222
BP,ioos:station:wmo:42369:3,2022-09-01T16:20:00Z,27.2106,-90.2732,484.7,13.2,11111222
BP,ioos:station:wmo:42369:3,2022-09-01T16:40:00Z,27.2106,-90.2732,484.4,13.2,11111222
BP,ioos:station:wmo:42369:3,2022-09-01T17:20:00Z,27.2105,-90.2733,484.7,13.2,11111222
BP,ioos:station:wmo:42369:3,2022-09-01T17:40:00Z,27.2105,-90.2733,483.7,13.2,11111222
BP,ioos:station:wmo:42369:3,2022-09-01T18:00:00Z,27.2107,-90.2732,484.2,13.1,11111222
BP,ioos:station:wmo:42369:3,2022-09-01T18:20:00Z,27.2107,-90.2732,482.6,13.2,11111222
BP,ioos:station:wmo:42369:3,2022-09-01T18:40:00Z,27.2106,-90.2732,482.0,13.2,11111222
BP,ioos:station:wmo:42369:3,2022-09-01T19:20:00Z,27.2104,-90.2733,480.6,13.2,11111222
BP,ioos:station:wmo:42369:3,2022-09-01T19:40:00Z,27.2104,-90.2733,481.3,13.2,11111222
BP,ioos:station:wmo:42369:3,2022-09-01T20:00:00Z,27.2104,-90.2733,479.9,13.2,11111222
BP,ioos:station:wmo:42369:3,2022-09-01T20:20:00Z,27.2104,-90.2733,481.0,13.2,11111222
BP,ioos:station:wmo:42369:3,2022-09-01T20:40:00Z,27.2104,-90.2733,480.4,13.2,11111222
BP,ioos:station:wmo:42369:3,2022-09-01T21:20:00Z,27.2104,-90.2733,479.1,13.2,11111222
BP,ioos:station:wmo:42369:3,2022-09-01T21:40:00Z,27.2104,-90.2733,479.2,13.3,11111222
BP,ioos:station:wmo:42369:3,2022-09-01T22:00:00Z,27.2105,-90.2733,478.1,13.3,11111222
BP,ioos:station:wmo:42369:3,2022-09-01T22:20:00Z,27.2105,-90.2733,478.6,13.4,11111222
BP,ioos:station:wmo:42369:3,2022-09-01T22:40:00Z,27.2104,-90.2733,477.9,13.4,11111222
BP,ioos:station:wmo:42369:3,2022-09-01T23:00:00Z,27.2103,-90.2733,478.0,13.4,11111222
BP,ioos:station:wmo:42369:3,2022-09-01T23:20:00Z,27.2104,-90.2733,476.8,13.4,11111222
BP,ioos:station:wmo:42369:3,2022-09-01T23:40:00Z,27.2104,-90.2734,476.4,13.4,11111222
BP,ioos:station:wmo:42369:3,2022-09-02T00:00:00Z,27.2104,-90.2733,476.6,13.4,11111222
BP,ioos:station:wmo:42369:3,2022-09-02T00:20:00Z,27.2104,-90.2733,476.5,13.4,11111222
BP,ioos:station:wmo:42369:3,2022-09-02T00:40:00Z,27.2104,-90.2733,477.4,13.4,11111222
BP,ioos:station:wmo:42369:3,2022-09-02T01:00:00Z,27.2104,-90.2733,476.8,13.4,11111222
BP,ioos:station:wmo:42369:3,2022-09-02T01:20:00Z,27.2104,-90.2733,477.3,13.4,11111222
BP,ioos:station:wmo:42369:3,2022-09-02T01:40:00Z,27.2104,-90.2734,476.8,13.4,11111222
BP,ioos:station:wmo:42369:3,2022-09-02T02:00:00Z,27.2104,-90.2734,476.4,13.5,11111222
BP,ioos:station:wmo:42369:3,2022-09-02T02:20:00Z,27.2104,-90.2734,475.6,13.5,11111222
BP,ioos:station:wmo:42369:3,2022-09-02T02:40:00Z,27.2105,-90.2734,476.2,13.5,11111222
BP,ioos:station:wmo:42369:3,2022-09-02T03:00:00Z,27.2105,-90.2734,476.6,13.5,11111222
BP,ioos:station:wmo:42369:3,2022-09-02T03:20:00Z,27.2105,-90.2734,476.0,13.5,11111222
BP,ioos:station:wmo:42369:3,2022-09-02T03:40:00Z,27.2106,-90.2734,476.7,13.5,11111222
BP,ioos:station:wmo:42369:3,2022-09-02T04:00:00Z,27.2106,-90.2735,476.0,13.5,11111222
BP,ioos:station:wmo:42369:3,2022-09-02T04:20:00Z,27.2106,-90.2735,474.6,13.4,11111222
BP,ioos:station:wmo:42369:3,2022-09-02T04:40:00Z,27.2106,-90.2735,475.2,13.4,11111222
BP,ioos:station:wmo:42369:3,2022-09-02T05:00:00Z,27.2107,-90.2736,474.7,13.4,11111222
BP,ioos:station:wmo:42369:3,2022-09-02T05:20:00Z,27.2107,-90.2736,474.9,13.5,11111222
BP,ioos:station:wmo:42369:3,2022-09-02T05:40:00Z,27.2107,-90.2736,474.6,13.5,11111222
BP,ioos:station:wmo:42369:3,2022-09-02T06:00:00Z,27.2108,-90.2736,473.9,13.5,11111222
BP,ioos:station:wmo:42369:3,2022-09-02T06:20:00Z,27.2109,-90.2736,476.2,13.5,11111222
BP,ioos:station:wmo:42369:3,2022-09-02T06:40:00Z,27.2111,-90.2737,475.4,13.5,11111222
BP,ioos:station:wmo:42369:3,2022-09-02T07:00:00Z,27.2111,-90.2737,475.1,13.6,11111222
BP,ioos:station:wmo:42369:3,2022-09-02T07:20:00Z,27.2112,-90.2737,474.9,13.6,11111222
BP,ioos:station:wmo:42369:3,2022-09-02T07:40:00Z,27.2111,-90.2737,475.1,13.6,11111222
BP,ioos:station:wmo:42369:3,2022-09-02T08:00:00Z,27.2111,-90.2737,474.7,13.5,11111222
BP,ioos:station:wmo:42369:3,2022-09-02T08:20:00Z,27.2111,-90.2738,474.0,13.5,11111222
BP,ioos:station:wmo:42369:3,2022-09-02T08:40:00Z,27.2112,-90.2738,474.3,13.6,11111222
BP,ioos:station:wmo:42369:3,2022-09-02T09:00:00Z,27.2112,-90.2738,473.4,13.7,11111222
BP,ioos:station:wmo:42369:3,2022-09-02T09:20:00Z,27.2113,-90.2738,474.6,13.7,11111222
BP,ioos:station:wmo:42369:3,2022-09-02T09:40:00Z,27.2117,-90.2738,474.9,13.7,11111222
BP,ioos:station:wmo:42369:3,2022-09-02T10:00:00Z,27.2117,-90.2738,477.0,13.6,11111222
BP,ioos:station:wmo:42369:3,2022-09-02T10:20:00Z,27.2118,-90.2738,477.6,13.5,11111222
BP,ioos:station:wmo:42369:3,2022-09-02T10:40:00Z,27.2118,-90.2738,477.2,13.6,11111222
BP,ioos:station:wmo:42369:3,2022-09-02T11:00:00Z,27.2118,-90.2738,477.3,13.6,11111222
BP,ioos:station:wmo:42369:3,2022-09-02T11:20:00Z,27.2118,-90.2738,477.9,13.7,11111222
BP,ioos:station:wmo:42369:3,2022-09-02T11:40:00Z,27.2118,-90.2738,478.4,13.7,11111222
BP,ioos:station:wmo:42369:3,2022-09-02T12:00:00Z,27.2116,-90.2738,479.6,13.7,11111222
BP,ioos:station:wmo:42369:3,2022-09-02T12:20:00Z,27.2118,-90.2738,479.5,13.7,11111222
BP,ioos:station:wmo:42369:3,2022-09-02T12:40:00Z,27.2118,-90.2738,480.9,13.7,11111222
BP,ioos:station:wmo:42369:3,2022-09-02T13:00:00Z,27.2118,-90.2738,482.3,13.7,11111222
BP,ioos:station:wmo:42369:3,2022-09-02T13:20:00Z,27.2118,-90.2738,481.4,13.7,11111222
BP,ioos:station:wmo:42369:3,2022-09-02T13:40:00Z,27.2118,-90.2738,483.7,13.7,11111222
BP,ioos:station:wmo:42369:3,2022-09-02T14:00:00Z,27.2118,-90.2737,486.0,13.6,11111222
BP,ioos:station:wmo:42369:3,2022-09-02T14:20:00Z,27.2118,-90.2736,487.0,13.6,11111222
BP,ioos:station:wmo:42369:3,2022-09-02T14:40:00Z,27.2117,-90.2736,485.6,13.5,11111222
BP,ioos:station:wmo:42369:3,2022-09-02T15:00:00Z,27.2117,-90.2736,484.6,13.5,11111222
BP,ioos:station:wmo:42369:3,2022-09-02T15:20:00Z,27.2117,-90.2736,483.6,13.5,11111222
BP,ioos:station:wmo:42369:3,2022-09-02T15:40:00Z,27.2117,-90.2736,485.5,13.5,11111222
BP,ioos:station:wmo:42369:3,2022-09-02T16:00:00Z,27.2117,-90.2736,485.1,13.5,11111222
BP,ioos:station:wmo:42369:3,2022-09-02T16:20:00Z,27.2117,-90.2736,483.1,13.5,11111222
BP,ioos:station:wmo:42369:3,2022-09-02T16:40:00Z,27.2116,-90.2736,482.9,13.4,11111222
BP,ioos:station:wmo:42369:3,2022-09-02T17:00:00Z,27.2116,-90.2736,482.9,13.4,11111222
BP,ioos:station:wmo:42369:3,2022-09-02T17:20:00Z,27.2114,-90.2735,481.4,13.5,11111222
BP,ioos:station:wmo:42369:3,2022-09-02T17:40:00Z,27.2113,-90.2736,479.6,13.5,11111222
BP,ioos:station:wmo:42369:3,2022-09-02T18:00:00Z,27.2112,-90.2735,478.8,13.5,11111222
BP,ioos:station:wmo:42369:3,2022-09-02T18:20:00Z,27.2112,-90.2735,479.2,13.6,11111222
BP,ioos:station:wmo:42369:3,2022-09-02T18:40:00Z,27.2111,-90.2734,479.4,13.6,11111222
BP,ioos:station:wmo:42369:3,2022-09-02T19:00:00Z,27.2111,-90.2734,478.2,13.6,11111222
BP,ioos:station:wmo:42369:3,2022-09-02T19:20:00Z,27.2109,-90.2734,478.3,13.6,11111222
BP,ioos:station:wmo:42369:3,2022-09-02T19:40:00Z,27.2108,-90.2733,478.4,13.6,11111222
BP,ioos:station:wmo:42369:3,2022-09-02T20:00:00Z,27.2106,-90.2732,479.1,13.6,11111222
BP,ioos:station:wmo:42369:3,2022-09-02T20:20:00Z,27.2106,-90.2732,478.7,13.5,11111222
BP,ioos:station:wmo:42369:3,2022-09-02T20:40:00Z,27.2105,-90.2732,478.3,13.6,11111222
BP,ioos:station:wmo:42369:3,2022-09-02T21:00:00Z,27.2104,-90.2732,477.5,13.6,11111222
BP,ioos:station:wmo:42369:3,2022-09-02T21:20:00Z,27.2104,-90.2732,477.1,13.6,11111222
BP,ioos:station:wmo:42369:3,2022-09-02T21:40:00Z,27.2102,-90.2732,476.0,13.6,11111222
BP,ioos:station:wmo:42369:3,2022-09-02T22:00:00Z,27.2101,-90.2731,476.6,13.6,11111222
BP,ioos:station:wmo:42369:3,2022-09-02T22:20:00Z,27.2101,-90.2731,475.6,13.6,11111222
BP,ioos:station:wmo:42369:3,2022-09-02T22:40:00Z,27.2100,-90.2731,475.7,13.6,11111222
BP,ioos:station:wmo:42369:3,2022-09-02T23:00:00Z,27.2099,-90.2731,476.1,13.6,11111222
BP,ioos:station:wmo:42369:3,2022-09-02T23:20:00Z,27.2099,-90.2730,475.4,13.6,11111222
BP,ioos:station:wmo:42369:3,2022-09-02T23:40:00Z,27.2098,-90.2730,475.1,13.6,11111222
BP,ioos:station:wmo:42369:3,2022-09-03T00:00:00Z,27.2097,-90.2730,474.6,13.6,11111222
BP,ioos:station:wmo:42369:3,2022-09-03T00:20:00Z,27.2096,-90.2730,475.5,13.5,11111222
BP,ioos:station:wmo:42369:3,2022-09-03T00:40:00Z,27.2096,-90.2729,475.7,13.5,11111222
BP,ioos:station:wmo:42369:3,2022-09-03T01:00:00Z,27.2095,-90.2729,475.2,13.6,11111222
BP,ioos:station:wmo:42369:3,2022-09-03T01:20:00Z,27.2096,-90.2729,476.8,13.6,11111222
BP,ioos:station:wmo:42369:3,2022-09-03T01:40:00Z,27.2095,-90.2729,477.2,13.6,11111222
BP,ioos:station:wmo:42369:3,2022-09-03T02:00:00Z,27.2095,-90.2729,478.3,13.6,11111222
BP,ioos:station:wmo:42369:3,2022-09-03T02:20:00Z,27.2095,-90.2729,476.7,13.6,11111222
BP,ioos:station:wmo:42369:3,2022-09-03T02:40:00Z,27.2095,-90.2729,476.3,13.6,11111222
BP,ioos:station:wmo:42369:3,2022-09-03T03:00:00Z,27.2095,-90.2729,476.2,13.6,11111222
BP,ioos:station:wmo:42369:3,2022-09-03T03:20:00Z,27.2095,-90.2729,476.5,13.6,11111222
BP,ioos:station:wmo:42369:3,2022-09-03T03:40:00Z,27.2096,-90.2729,476.0,13.6,11111222
BP,ioos:station:wmo:42369:3,2022-09-03T04:00:00Z,27.2096,-90.2729,477.8,13.6,11111222
BP,ioos:station:wmo:42369:3,2022-09-03T04:20:00Z,27.2096,-90.2729,477.4,13.6,11111222
BP,ioos:station:wmo:42369:3,2022-09-03T04:40:00Z,27.2096,-90.2729,477.8,13.6,11111222
BP,ioos:station:wmo:42369:3,2022-09-03T05:00:00Z,27.2096,-90.2729,477.4,13.6,11111222
BP,ioos:station:wmo:42369:3,2022-09-03T05:20:00Z,27.2097,-90.2730,476.7,13.6,11111222
BP,ioos:station:wmo:42369:3,2022-09-03T05:40:00Z,27.2098,-90.2730,476.8,13.6,11111222
BP,ioos:station:wmo:42369:3,2022-09-03T06:00:00Z,27.2098,-90.2730,476.9,13.6,11111222
BP,ioos:station:wmo:42369:3,2022-09-03T06:20:00Z,27.2099,-90.2731,476.5,13.6,11111222
BP,ioos:station:wmo:42369:3,2022-09-03T06:40:00Z,27.2099,-90.2731,476.3,13.6,11111222
BP,ioos:station:wmo:42369:3,2022-09-03T07:00:00Z,27.2099,-90.2731,474.7,13.6,11111222
BP,ioos:station:wmo:42369:3,2022-09-03T07:20:00Z,27.2100,-90.2732,473.7,13.6,11111222
BP,ioos:station:wmo:42369:3,2022-09-03T07:40:00Z,27.2100,-90.2732,473.9,13.7,11111222
BP,ioos:station:wmo:42369:3,2022-09-03T08:00:00Z,27.2101,-90.2733,473.4,13.7,11111222
BP,ioos:station:wmo:42369:3,2022-09-03T08:20:00Z,27.2101,-90.2733,472.9,13.8,11111222
BP,ioos:station:wmo:42369:3,2022-09-03T08:40:00Z,27.2102,-90.2733,472.2,13.8,11111222
BP,ioos:station:wmo:42369:3,2022-09-03T09:00:00Z,27.2102,-90.2734,472.0,13.8,11111222
BP,ioos:station:wmo:42369:3,2022-09-03T09:20:00Z,27.2102,-90.2734,472.3,13.9,11111222
BP,ioos:station:wmo:42369:3,2022-09-03T09:40:00Z,27.2103,-90.2734,471.5,14.0,11111222
BP,ioos:station:wmo:42369:3,2022-09-03T10:00:00Z,27.2103,-90.2734,470.6,14.0,11111222
BP,ioos:station:wmo:42369:3,2022-09-03T10:20:00Z,27.2104,-90.2734,471.2,14.1,11111222
BP,ioos:station:wmo:42369:3,2022-09-03T10:40:00Z,27.2103,-90.2734,472.5,14.1,11111222
BP,ioos:station:wmo:42369:3,2022-09-03T11:00:00Z,27.2103,-90.2734,471.8,14.2,11111222
BP,ioos:station:wmo:42369:3,2022-09-03T11:20:00Z,27.2104,-90.2734,473.8,14.2,11111222
BP,ioos:station:wmo:42369:3,2022-09-03T11:40:00Z,27.2103,-90.2734,473.1,14.2,11111222
BP,ioos:station:wmo:42369:3,2022-09-03T12:00:00Z,27.2104,-90.2734,472.4,14.1,11111222
BP,ioos:station:wmo:42369:3,2022-09-03T12:20:00Z,27.2104,-90.2734,472.6,14.2,11111222
BP,ioos:station:wmo:42369:3,2022-09-03T12:40:00Z,27.2104,-90.2734,473.3,14.1,11111222
BP,ioos:station:wmo:42369:3,2022-09-03T13:00:00Z,27.2104,-90.2735,472.6,14.0,11111222
BP,ioos:station:wmo:42369:3,2022-09-03T13:20:00Z,27.2104,-90.2734,472.6,14.0,11111222
BP,ioos:station:wmo:42369:3,2022-09-03T13:40:00Z,27.2104,-90.2734,473.9,14.0,11111222
BP,ioos:station:wmo:42369:3,2022-09-03T14:00:00Z,27.2104,-90.2733,475.2,13.9,11111222
BP,ioos:station:wmo:42369:3,2022-09-03T14:20:00Z,27.2105,-90.2733,476.3,13.8,11111222
BP,ioos:station:wmo:42369:3,2022-09-03T14:40:00Z,27.2105,-90.2733,475.5,13.8,11111222
BP,ioos:station:wmo:42369:3,2022-09-03T15:00:00Z,27.2105,-90.2733,475.0,13.8,11111222
BP,ioos:station:wmo:42369:3,2022-09-03T15:20:00Z,27.2105,-90.2734,475.8,13.8,11111222
BP,ioos:station:wmo:42369:3,2022-09-03T15:40:00Z,27.2106,-90.2733,477.0,13.8,11111222
BP,ioos:station:wmo:42369:3,2022-09-03T16:00:00Z,27.2106,-90.2734,476.9,13.8,11111222
BP,ioos:station:wmo:42369:3,2022-09-03T16:20:00Z,27.2107,-90.2734,477.6,13.7,11111222
BP,ioos:station:wmo:42369:3,2022-09-03T16:40:00Z,27.2107,-90.2734,477.3,13.7,11111222
BP,ioos:station:wmo:42369:3,2022-09-03T17:00:00Z,27.2107,-90.2734,477.5,13.7,11111222
BP,ioos:station:wmo:42369:3,2022-09-03T17:20:00Z,27.2107,-90.2734,477.3,13.7,11111222
BP,ioos:station:wmo:42369:3,2022-09-03T17:40:00Z,27.2107,-90.2734,477.7,13.7,11111222
BP,ioos:station:wmo:42369:3,2022-09-03T18:00:00Z,27.2108,-90.2734,478.3,13.7,11111222
BP,ioos:station:wmo:42369:3,2022-09-03T18:20:00Z,27.2108,-90.2733,478.7,13.7,11111222
BP,ioos:station:wmo:42369:3,2022-09-03T18:40:00Z,27.2108,-90.2733,477.9,13.7,11111222
BP,ioos:station:wmo:42369:3,2022-09-03T19:00:00Z,27.2108,-90.2733,477.8,13.7,11111222
BP,ioos:station:wmo:42369:3,2022-09-03T19:20:00Z,27.2107,-90.2733,477.3,13.7,11111222
BP,ioos:station:wmo:42369:3,2022-09-03T19:40:00Z,27.2107,-90.2733,476.2,13.7,11111222
BP,ioos:station:wmo:42369:3,2022-09-03T20:00:00Z,27.2106,-90.2733,475.2,13.8,11111222
BP,ioos:station:wmo:42369:3,2022-09-03T20:20:00Z,27.2105,-90.2733,475.1,13.8,11111222
BP,ioos:station:wmo:42369:3,2022-09-03T20:40:00Z,27.2104,-90.2733,474.1,13.7,11111222
BP,ioos:station:wmo:42369:3,2022-09-03T21:00:00Z,27.2103,-90.2733,474.4,13.7,11111222
BP,ioos:station:wmo:42369:3,2022-09-03T21:20:00Z,27.2098,-90.2730,473.6,13.7,11111222
BP,ioos:station:wmo:42369:3,2022-09-03T21:40:00Z,27.2097,-90.2730,473.7,13.7,11111222
BP,ioos:station:wmo:42369:3,2022-09-03T22:00:00Z,27.2097,-90.2730,473.8,13.7,11111222
BP,ioos:station:wmo:42369:3,2022-09-03T22:20:00Z,27.2097,-90.2730,475.1,13.7,11111222
BP,ioos:station:wmo:42369:3,2022-09-03T22:40:00Z,27.2096,-90.2730,474.2,13.7,11111222
BP,ioos:station:wmo:42369:3,2022-09-03T23:00:00Z,27.2092,-90.2730,474.4,13.7,11111222
BP,ioos:station:wmo:42369:3,2022-09-03T23:20:00Z,27.2092,-90.2730,474.3,13.8,11111222
BP,ioos:station:wmo:42369:3,2022-09-03T23:40:00Z,27.2092,-90.2730,474.7,13.8,11111222
BP,ioos:station:wmo:42369:3,2022-09-04T00:00:00Z,27.2098,-90.2730,474.5,13.8,11111222
BP,ioos:station:wmo:42369:3,2022-09-04T00:20:00Z,27.2097,-90.2730,475.1,13.8,11111222
BP,ioos:station:wmo:42369:3,2022-09-04T00:40:00Z,27.2092,-90.2730,474.7,13.8,11111222
BP,ioos:station:wmo:42369:3,2022-09-04T01:00:00Z,27.2092,-90.2730,474.9,13.8,11111222
BP,ioos:station:wmo:42369:3,2022-09-04T01:20:00Z,27.2092,-90.2730,475.6,13.8,11111222
BP,ioos:station:wmo:42369:3,2022-09-04T01:40:00Z,27.2092,-90.2730,474.9,13.8,11111222
BP,ioos:station:wmo:42369:3,2022-09-04T02:00:00Z,27.2092,-90.2730,474.4,13.8,11111222
BP,ioos:station:wmo:42369:3,2022-09-04T02:20:00Z,27.2092,-90.2731,474.1,13.8,11111222
BP,ioos:station:wmo:42369:3,2022-09-04T02:40:00Z,27.2092,-90.2731,473.0,13.8,11111222
BP,ioos:station:wmo:42369:3,2022-09-04T03:00:00Z,27.2092,-90.2731,473.5,13.8,11111222
BP,ioos:station:wmo:42369:3,2022-09-04T03:20:00Z,27.2092,-90.2731,473.6,13.8,11111222
BP,ioos:station:wmo:42369:3,2022-09-04T03:40:00Z,27.2092,-90.2731,472.0,13.8,11111222
BP,ioos:station:wmo:42369:3,2022-09-04T04:00:00Z,27.2092,-90.2730,470.1,13.8,11111222
BP,ioos:station:wmo:42369:3,2022-09-04T04:20:00Z,27.2092,-90.2730,471.8,13.8,11111222
BP,ioos:station:wmo:42369:3,2022-09-04T04:40:00Z,27.2092,-90.2730,472.0,13.8,11111222
BP,ioos:station:wmo:42369:3,2022-09-04T05:00:00Z,27.2092,-90.2731,470.7,13.8,11111222
BP,ioos:station:wmo:42369:3,2022-09-04T05:20:00Z,27.2092,-90.2731,470.2,13.8,11111222
BP,ioos:station:wmo:42369:3,2022-09-04T05:40:00Z,27.2092,-90.2731,470.2,13.9,11111222
BP,ioos:station:wmo:42369:3,2022-09-04T06:00:00Z,27.2092,-90.2731,470.3,13.9,11111222
BP,ioos:station:wmo:42369:3,2022-09-04T06:20:00Z,27.2093,-90.2732,468.8,13.9,11111222
BP,ioos:station:wmo:42369:3,2022-09-04T06:40:00Z,27.2093,-90.2732,468.7,13.9,11111222
BP,ioos:station:wmo:42369:3,2022-09-04T07:00:00Z,27.2093,-90.2732,468.6,13.9,11111222
BP,ioos:station:wmo:42369:3,2022-09-04T07:20:00Z,27.2093,-90.2732,468.5,13.9,11111222
BP,ioos:station:wmo:42369:3,2022-09-04T07:40:00Z,27.2094,-90.2732,468.6,13.9,11111222
BP,ioos:station:wmo:42369:3,2022-09-04T08:00:00Z,27.2095,-90.2732,469.1,13.9,11111222
BP,ioos:station:wmo:42369:3,2022-09-04T08:20:00Z,27.2095,-90.2732,468.3,13.9,11111222
BP,ioos:station:wmo:42369:3,2022-09-04T08:40:00Z,27.2095,-90.2733,468.9,13.9,11111222
BP,ioos:station:wmo:42369:3,2022-09-04T09:00:00Z,27.2096,-90.2733,467.7,13.9,11111222
BP,ioos:station:wmo:42369:3,2022-09-04T09:20:00Z,27.2096,-90.2733,468.6,14.0,11111222
BP,ioos:station:wmo:42369:3,2022-09-04T09:40:00Z,27.2096,-90.2733,467.6,14.0,11111222
BP,ioos:station:wmo:42369:3,2022-09-04T10:00:00Z,27.2096,-90.2733,467.9,14.0,11111222
BP,ioos:station:wmo:42369:3,2022-09-04T10:20:00Z,27.2097,-90.2734,465.9,14.0,11111222
BP,ioos:station:wmo:42369:3,2022-09-04T10:40:00Z,27.2097,-90.2734,466.7,14.1,11111222
BP,ioos:station:wmo:42369:3,2022-09-04T11:00:00Z,27.2097,-90.2734,466.5,14.1,11111222
BP,ioos:station:wmo:42369:3,2022-09-04T11:20:00Z,27.2097,-90.2734,466.1,14.1,11111222
BP,ioos:station:wmo:42369:3,2022-09-04T11:40:00Z,27.2097,-90.2735,466.0,14.1,11111222
BP,ioos:station:wmo:42369:3,2022-09-04T12:00:00Z,27.2097,-90.2735,466.3,14.2,11111222
BP,ioos:station:wmo:42369:3,2022-09-04T12:20:00Z,27.2097,-90.2735,465.6,14.2,11111222
BP,ioos:station:wmo:42369:3,2022-09-04T12:40:00Z,27.2098,-90.2735,465.2,14.2,11111222
BP,ioos:station:wmo:42369:3,2022-09-04T13:00:00Z,27.2098,-90.2735,465.9,14.2,11111222
BP,ioos:station:wmo:42369:3,2022-09-04T13:20:00Z,27.2098,-90.2736,464.8,14.2,11111222
BP,ioos:station:wmo:42369:3,2022-09-04T13:40:00Z,27.2099,-90.2736,464.6,14.2,11111222
BP,ioos:station:wmo:42369:3,2022-09-04T14:00:00Z,27.2099,-90.2736,465.9,14.1,11111222
BP,ioos:station:wmo:42369:3,2022-09-04T14:20:00Z,27.2099,-90.2736,464.8,14.1,11111222
BP,ioos:station:wmo:42369:3,2022-09-04T14:40:00Z,27.2100,-90.2736,465.6,14.2,11111222
BP,ioos:station:wmo:42369:3,2022-09-04T15:00:00Z,27.2100,-90.2736,465.5,14.2,11111222
BP,ioos:station:wmo:42369:3,2022-09-04T15:20:00Z,27.2101,-90.2736,465.8,14.2,11111222
BP,ioos:station:wmo:42369:3,2022-09-04T15:40:00Z,27.2101,-90.2736,465.2,14.2,11111222
BP,ioos:station:wmo:42369:3,2022-09-04T16:00:00Z,27.2101,-90.2736,465.6,14.2,11111222
BP,ioos:station:wmo:42369:3,2022-09-04T16:20:00Z,27.2102,-90.2736,466.5,14.2,11111222
BP,ioos:station:wmo:42369:3,2022-09-04T16:40:00Z,27.2102,-90.2736,466.7,14.1,11111222
BP,ioos:station:wmo:42369:3,2022-09-04T17:00:00Z,27.2102,-90.2736,466.0,14.2,11111222
BP,ioos:station:wmo:42369:3,2022-09-04T17:20:00Z,27.2102,-90.2736,466.2,14.2,11111222
BP,ioos:station:wmo:42369:3,2022-09-04T17:40:00Z,27.2102,-90.2736,466.7,14.2,11111222
BP,ioos:station:wmo:42369:3,2022-09-04T18:00:00Z,27.2103,-90.2736,467.5,14.2,11111222
BP,ioos:station:wmo:42369:3,2022-09-04T18:20:00Z,27.2103,-90.2736,467.2,14.3,11111222
BP,ioos:station:wmo:42369:3,2022-09-04T18:40:00Z,27.2103,-90.2736,466.2,14.3,11111222
BP,ioos:station:wmo:42369:3,2022-09-04T19:00:00Z,27.2104,-90.2736,467.5,14.3,11111222
BP,ioos:station:wmo:42369:3,2022-09-04T19:20:00Z,27.2104,-90.2736,466.9,14.3,11111222
BP,ioos:station:wmo:42369:3,2022-09-04T19:40:00Z,27.2104,-90.2736,466.5,14.3,11111222
BP,ioos:station:wmo:42369:3,2022-09-04T20:00:00Z,27.2104,-90.2736,465.0,14.3,11111222
BP,ioos:station:wmo:42369:3,2022-09-04T20:20:00Z,27.2104,-90.2737,465.5,14.4,11111222
BP,ioos:station:wmo:42369:3,2022-09-04T20:40:00Z,27.2104,-90.2737,465.5,14.3,11111222
BP,ioos:station:wmo:42369:3,2022-09-04T21:00:00Z,27.2103,-90.2737,464.9,14.3,11111222
BP,ioos:station:wmo:42369:3,2022-09-04T21:20:00Z,27.2103,-90.2737,464.6,14.3,11111222
BP,ioos:station:wmo:42369:3,2022-09-04T21:40:00Z,27.2103,-90.2737,464.3,14.2,11111222